Flag for U.S.A. Weather past 2 weeks in San Antonio, Texas, U.S.A.

Now
71 °F

Partly sunny.


Feels Like: 76 °F
Forecast: 42 / 73 °F
Wind: 7 mph from West

Location: San Antonio International Airport

Current Time: Jan 26, 2015 at 5:10:08 PM

Latest Report: Jan 26, 2015 at 3:51 PM


Visibility: 10 mi

Pressure: 30.14 "Hg

Humidity: 28%

Dew point: 36 °F

Location of San AntonioLocation

Historic Weather in San Antonio — Graph

°F

San Antonio temperature yesterday

Maximum temperature yesterday: 73 °F (at 2:51 PM)
Minimum temperature yesterday: 38 °F (at 6:51 AM)
Average temperature yesterday: 54 °F

Past Weeks' High & Low Weather Summary

 TemperatureHumidityPressure
High81 °F (Jan 20, 2:51 PM)97% (Jan 21, 10:51 PM)30.45 "Hg (Jan 21, 10:51 PM)
Low34 °F (Jan 24, 2:51 AM)17% (Jan 18, 3:51 PM)29.82 "Hg (Jan 20, 3:51 PM)
Average50 °F69%30.16 "Hg
* Reported Jan 11 3:51 PM — Jan 26 3:51 PM, San Antonio, Weather by CustomWeather, © 2014

Note: Actual official high and low records may vary slightly from our data, if they occured in-between our weather recording intervals... More about our weather records

Advertising

San Antonio weather history for previous 24 hours

 ConditionsComfort  
Time TempWeatherWind HumidityBarometerVisibility
3:51 PM
Jan 26
71 °FPartly sunny.7 mph28%30.14 "Hg10 mi
2:51 PM70 °FPartly sunny.8 mph30%30.15 "Hg10 mi
1:51 PM71 °FPartly sunny.8 mph27%30.16 "Hg10 mi
12:51 PM71 °FPartly sunny.6 mph28%30.21 "Hg10 mi
11:51 AM68 °FPartly sunny.7 mph30%30.24 "Hg10 mi
10:51 AM64 °FPartly sunny.6 mph35%30.27 "Hg10 mi
9:51 AM57 °FPartly sunny.5 mph47%30.25 "Hg10 mi
8:51 AM52 °FPartly sunny.5 mph59%30.24 "Hg10 mi
7:51 AM44 °FPartly sunny.5 mph71%30.24 "Hg10 mi
6:51 AM41 °FPassing clouds.7 mph76%30.23 "Hg10 mi
5:51 AM40 °FPassing clouds.6 mph77%30.22 "Hg10 mi
4:51 AM43 °FPassing clouds.5 mph71%30.20 "Hg10 mi
3:51 AM41 °FPassing clouds.3 mph76%30.20 "Hg10 mi
2:51 AM42 °FPassing clouds.5 mph73%30.20 "Hg10 mi
1:51 AM43 °FClear.5 mph71%30.19 "Hg10 mi
12:51 AM47 °FClear.6 mph61%30.19 "Hg10 mi
11:51 PM
Jan 25
46 °FPassing clouds.7 mph66%30.19 "Hg10 mi
10:51 PM48 °FPassing clouds.8 mph63%30.19 "Hg10 mi
9:51 PM50 °FPassing clouds.9 mph61%30.18 "Hg10 mi
8:51 PM52 °FPassing clouds.7 mph57%30.17 "Hg10 mi
7:51 PM53 °FPassing clouds.7 mph56%30.16 "Hg10 mi
6:51 PM58 °FPassing clouds.3 mph44%30.15 "Hg10 mi
5:51 PM64 °FPartly sunny.6 mph33%30.12 "Hg10 mi
Weather by CustomWeather, © 2014

See weather overviewHow to use our weather pages